SCP
0 0 0 0 0 0 0 0 0 0 0 0 0 0 0 0 0 0 0 0 0 0
0 0 0 0 0 0 0 0 0 0 0 0 0 0 0 0 0 0 0 0 0 0
0 0 0 0 0 0 0 0 0 0 0 0 0 0 0 0 0 0 0 0 0 0
0 0 0 0 0 0 0 0 0 0 0 0 0 0 0 0 0 0 0 0 0 0
0 0 0 0 0 0 0 0 0 0 0 0 0 0 0 0 0 0 0 0 0 0
0 0 0 0 0 0 0 0 0 0 0 0 0 0 0 0 0 0 0 0 0 0
0 0 0 0 0 0 0 0 0 0 0 0 0 0 0 0 0 0 0 0 0 0
0 0 0 0 0 0 0 0 0 0 0 0 0 0 0 0 0 0 0 0 0 0
0 0 0 0 0 0 0 0 0 0 0 0 0 0 0 0 0 0 0 0 0 0
0 0 0 0 0 0 0 0 0 0 0 0 0 0 0 0 0 0 0 0 0 0
0 0 0 0 0 0 0 0 0 0 0 0 0 0 0 0 0 0 0 0 0 0
0 0 0 0 0 0 0 0 0 0 0 0 0 0 0 0 0 0 0 0 0 0
0 0 0 0 0 0 0 0 0 0 0 0 0 0 0 0 0 0 0 0 0 0
0 0 0 0 0 0 0 0 0 0 0 0 0 0 0 0 0 0 0 0 0 0
Wind_Speed_500mb
80 78 72 65 62 58 53 46 42 42 38 35 32 31 27 25 23 20 18 16 15 15
74 73 67 62 57 54 48 43 41 38 35 31 28 28 25 23 22 19 17 16 16 15
66 67 62 57 53 51 48 47 41 37 34 30 28 25 23 22 21 19 18 17 16 16
56 57 56 56 55 53 50 47 40 36 35 34 29 25 23 22 21 19 17 17 17 17
48 54 57 56 54 53 52 47 42 42 37 31 29 26 23 20 18 17 17 17 18 18
49 54 55 53 53 54 47 44 42 36 31 29 26 23 20 17 15 16 17 19 20 21
51 54 54 52 48 40 39 36 34 33 32 29 25 22 18 19 20 21 21 20 21 23
51 48 41 36 34 33 34 36 35 32 28 27 27 29 29 23 18 20 25 24 25 23
37 35 38 42 44 42 40 37 36 37 35 34 33 30 25 23 20 18 21 22 21 23
34 37 34 31 32 31 32 33 32 33 34 32 25 21 17 13 17 21 22 22 23 25
26 28 29 28 30 32 32 32 31 27 23 22 22 20 15 13 20 21 20 20 23 25
23 24 26 28 28 26 25 25 23 21 20 20 17 14 14 17 18 21 18 20 21 26
20 22 23 23 23 24 23 21 20 21 19 15 12 12 17 16 18 17 19 19 24 27
17 18 19 20 21 20 20 20 19 17 13 13 16 17 18 18 13 18 17 22 27 26
Wind_Direction_500mb
227 226 225 224 221 219 219 217 217 219 220 222 225 231 232 237 241 244 248 255 262 268
227 225 222 219 218 217 214 216 217 219 222 224 229 233 233 236 238 241 245 253 262 270
227 223 218 216 217 214 212 214 215 220 225 229 234 233 232 232 234 236 241 251 262 270
227 219 211 212 211 212 214 215 214 223 227 229 230 230 232 231 233 236 245 254 262 270
222 210 207 205 205 205 204 212 216 219 219 222 226 227 227 230 235 242 250 259 267 272
207 198 192 199 197 200 208 206 209 212 217 221 220 218 219 224 236 252 259 263 270 275
189 183 196 195 197 194 195 201 207 210 211 211 210 210 220 243 252 259 265 273 281 285
182 192 190 184 182 191 202 207 208 206 209 217 224 239 246 245 233 255 272 275 276 280
183 178 181 187 191 196 204 210 220 226 224 232 237 228 219 235 245 260 274 282 281 287
190 191 193 201 206 210 211 214 224 233 234 230 225 220 207 216 240 254 274 279 287 293
193 195 197 201 206 215 227 232 232 227 218 218 215 205 204 221 245 257 265 274 285 293
201 203 208 218 220 222 221 217 211 210 208 205 200 196 210 227 236 257 267 280 284 296
208 212 216 219 218 214 207 206 202 202 199 204 214 226 226 215 251 268 285 287 296 303
225 224 221 217 213 209 204 200 197 199 202 209 225 232 230 224 232 277 294 299 300 297
Wind_Speed_850mb
80 78 72 65 62 58 53 46 42 42 38 35 32 31 27 25 23 20 18 16 15 15
74 73 67 62 57 54 48 43 41 38 35 31 28 28 25 23 22 19 17 16 16 15
66 67 62 57 53 51 48 47 41 37 34 30 28 25 23 22 21 19 18 17 16 16
56 57 56 56 55 53 50 47 40 36 35 34 29 25 23 22 21 19 17 17 17 17
48 54 57 56 54 53 52 47 42 42 37 31 29 26 23 20 18 17 17 17 18 18
49 54 55 53 53 54 47 44 42 36 31 29 26 23 20 17 15 16 17 19 20 21
51 54 54 52 48 40 39 36 34 33 32 29 25 22 18 19 20 21 21 20 21 23
51 48 41 36 34 33 34 36 35 32 28 27 27 29 29 23 18 20 25 24 25 23
37 35 38 42 44 42 40 37 36 37 35 34 33 30 25 23 20 18 21 22 21 23
34 37 34 31 32 31 32 33 32 33 34 32 25 21 17 13 17 21 22 22 23 25
26 28 29 28 30 32 32 32 31 27 23 22 22 20 15 13 20 21 20 20 23 25
23 24 26 28 28 26 25 25 23 21 20 20 17 14 14 17 18 21 18 20 21 26
20 22 23 23 23 24 23 21 20 21 19 15 12 12 17 16 18 17 19 19 24 27
17 18 19 20 21 20 20 20 19 17 13 13 16 17 18 18 13 18 17 22 27 26
Wind_Direction_850mb
227 226 225 224 221 219 219 217 217 219 220 222 225 231 232 237 241 244 248 255 262 268
227 225 222 219 218 217 214 216 217 219 222 224 229 233 233 236 238 241 245 253 262 270
227 223 218 216 217 214 212 214 215 220 225 229 234 233 232 232 234 236 241 251 262 270
227 219 211 212 211 212 214 215 214 223 227 229 230 230 232 231 233 236 245 254 262 270
222 210 207 205 205 205 204 212 216 219 219 222 226 227 227 230 235 242 250 259 267 272
207 198 192 199 197 200 208 206 209 212 217 221 220 218 219 224 236 252 259 263 270 275
189 183 196 195 197 194 195 201 207 210 211 211 210 210 220 243 252 259 265 273 281 285
182 192 190 184 182 191 202 207 208 206 209 217 224 239 246 245 233 255 272 275 276 280
183 178 181 187 191 196 204 210 220 226 224 232 237 228 219 235 245 260 274 282 281 287
190 191 193 201 206 210 211 214 224 233 234 230 225 220 207 216 240 254 274 279 287 293
193 195 197 201 206 215 227 232 232 227 218 218 215 205 204 221 245 257 265 274 285 293
201 203 208 218 220 222 221 217 211 210 208 205 200 196 210 227 236 257 267 280 284 296
208 212 216 219 218 214 207 206 202 202 199 204 214 226 226 215 251 268 285 287 296 303
225 224 221 217 213 209 204 200 197 199 202 209 225 232 230 224 232 277 294 299 300 297